STARLINK-3768, 52301

Orbit data source: Space-Track

STARLINK-3768, 52301 is a payload satellite owned by SpaceX/Seattle (US) in LEO that was launched on Thu, 21 Apr 2022 UTC via an FALCON 9 launch vehicle from the Air Force Eastern Test Range (AFETR). Payload-class satellites include a variety of spacecraft equipped with specific instruments for various scientific and technological missions. These include communications satellites like Starlink; space stations such as the ISS; scientific satellites like the Hubble; Earth observation satellites from companies like Planet Labs, Umbra, and HawkEye 360; GPS; miniature CubeSats for education and research; and military/defense satellites.

Loading next visibility...
Identifier
52301, 2022-041AS
Orbit
LEO
Country
Flag of USUS
Related business
Manufacturer
SpaceX/Seattle
Mission
Operational Commercial Communications
Bus & Motor
STARLINK, Unknown motor
Mass
297 kg wet, ~275 kg dry
Launch date (UTC)
2022-04-21 (4 years ago)
Launch vehicle
FALCON 9
Launch site
Air Force Eastern Test Range (AFETR)
Object type
Payload
Rocket body
Debris
Shape & HBR
Box + 1 Pan, 10.1 m
Radar Cross Section
11.087 m², Large (>1 m²)

Expand to show TLE details & history
Last TLE update: 9 hours ago

TLE from 9 hours ago
0 STARLINK-3768
1 52301U 22041AS  26219.95447765  .00000317  00000-0  20970-4 0  9990
2 52301  53.1627 135.3144 0001345  87.4941 272.6216 15.33544568237400
Epoch: 2026-08-07T22:54Z
TLE epoch observation values (Epoch: 2026-08-07T22:54:26.868Z)
Latitude
0.00002°
Longitude
-164.7703°
Altitude
466.106 km
Speed
7.635 km/s
True Right ascension
09h 01m 15s
True Declination
0° 00' 00"
Sunlit
Object was in daylight at epoch
Visualization orbit readout
Latitude
Unknown
Longitude
Unknown
Altitude
Unknown
Speed
Unknown
Apparent Right ascension
Unknown
Apparent Declination
Unknown
Sunlit
N/A
Visualization observer readout
Local Sidereal Time
21:40:23
Azimuth
Unknown
Elevation
Unknown
Doppler factor
Unknown
Orbital elements
Apogee altitude
466.424 km
Perigee altitude
464.583 km
Semi-major axis
6,843.64 km
Eccentricity
0.00013
Inclination
53.1627°
RAAN
135.3144°
Arg. of periapsis
87.4941°
True anomaly
272.6062°
Mean anomaly
272.6216°
Eccentric anomaly
272.6139°
Mean motion
3.83365 °/min
Orbital period
93.91 mins
BSTAR
0.00002097
Loading maneuver chart data...
Computing Atmospheric mass density...
Loading historical data...
Loading historical data...
Loading historical data...
Loading historical data...
Loading historical data...
Loading historical data...
Loading historical data...

Documentation

Showing up to 5 results
|